| time (UTC) | temp C | wind direction | speed KPH | gust KPH | rain 1hr cm | rain 24hr cm | rain mn cm | humidity % | barometer mb |
| 20260906115619 | 17 | 102 | 0.0 | 0.0 | 0.00 | 0.00 | 0.00 | 95 | 1009.2 |
| 20260906115331 | 17 | 102 | 0.0 | 0.0 | 0.00 | 0.00 | 0.00 | 95 | 1009.2 |
| 20260906114605 | 17 | 102 | 0.0 | 0.0 | 0.00 | 0.00 | 0.00 | 95 | 1009.0 |
| 20260906114100 | 17 | 102 | 0.0 | 0.0 | 0.00 | 0.00 | 0.00 | 95 | 1008.9 |
| 20260906113554 | 17 | 102 | 0.0 | 0.0 | 0.00 | 0.00 | 0.00 | 95 | 1009.0 |
| 20260906113047 | 17 | 102 | 0.0 | 0.0 | 0.00 | 0.00 | 0.00 | 95 | 1008.8 |
| 20260906112801 | 17 | 102 | 0.0 | 0.0 | 0.00 | 0.00 | 0.00 | 95 | 1008.9 |
| 20260906112036 | 17 | 102 | 0.0 | 0.0 | 0.00 | 0.00 | 0.00 | 94 | 1008.6 |
| 20260906111529 | 17 | 102 | 0.0 | 0.0 | 0.00 | 0.00 | 0.00 | 94 | 1008.6 |
| 20260906111023 | 17 | 102 | 0.0 | 0.0 | 0.00 | 0.00 | 0.00 | 94 | 1008.6 |
| 20260906110518 | 17 | 102 | 0.0 | 0.0 | 0.00 | 0.00 | 0.00 | 94 | 1008.4 |
| 20260906110011 | 17 | 102 | 0.0 | 0.0 | 0.00 | 0.00 | 0.00 | 94 | 1008.4 |
| 20260906105506 | 17 | 102 | 0.0 | 0.0 | 0.00 | 0.00 | 0.00 | 94 | 1008.5 |
| 20260906105000 | 17 | 102 | 0.0 | 0.0 | 0.00 | 0.00 | 0.00 | 94 | 1008.6 |
| 20260906104454 | 17 | 102 | 0.0 | 0.0 | 0.00 | 0.00 | 0.00 | 94 | 1008.5 |
| 20260906103442 | 17 | 102 | 0.0 | 0.0 | 0.00 | 0.00 | 0.00 | 94 | 1008.5 |
| 20260906102936 | 17 | 102 | 0.0 | 0.0 | 0.00 | 0.00 | 0.00 | 94 | 1008.4 |
| 20260906101924 | 17 | 102 | 0.0 | 0.0 | 0.00 | 0.00 | 0.00 | 95 | 1008.4 |
| 20260906101418 | 17 | 41 | 0.0 | 0.0 | 0.00 | 0.00 | 0.00 | 94 | 1008.3 |
| 20260906100912 | 17 | 41 | 0.0 | 0.0 | 0.00 | 0.00 | 0.00 | 94 | 1008.4 |
| 20260906100406 | 17 | 344 | 0.0 | 0.0 | 0.00 | 0.00 | 0.00 | 94 | 1008.3 |
| 20260906095859 | 17 | 345 | 0.0 | 0.0 | 0.00 | 0.00 | 0.00 | 94 | 1008.2 |
| 20260906095354 | 17 | 345 | 0.0 | 0.0 | 0.00 | 0.00 | 0.00 | 94 | 1008.0 |
| 20260906094848 | 17 | 345 | 0.0 | 0.0 | 0.00 | 0.00 | 0.00 | 94 | 1008.0 |
| 20260906094342 | 17 | 345 | 0.0 | 0.0 | 0.00 | 0.00 | 0.00 | 94 | 1007.9 |
| 20260906093836 | 17 | 345 | 0.0 | 0.0 | 0.00 | 0.00 | 0.00 | 94 | 1008.0 |
| 20260906093330 | 17 | 345 | 0.0 | 1.6 | 0.00 | 0.00 | 0.00 | 94 | 1008.0 |
| 20260906092825 | 18 | 345 | 0.0 | 1.6 | 0.00 | 0.00 | 0.00 | 94 | 1008.0 |
| 20260906092318 | 17 | 27 | 0.0 | 1.6 | 0.00 | 0.00 | 0.00 | 94 | 1007.9 |
| 20260906091811 | 17 | 100 | 0.0 | 0.0 | 0.00 | 0.00 | 0.00 | 94 | 1008.0 |
| 20260906091307 | 18 | 104 | 0.0 | 1.6 | 0.00 | 0.00 | 0.00 | 94 | 1008.0 |
| 20260906090800 | 18 | 104 | 0.0 | 1.6 | 0.00 | 0.00 | 0.00 | 94 | 1008.0 |
| 20260906090253 | 18 | 113 | 0.0 | 1.6 | 0.00 | 0.00 | 0.00 | 94 | 1008.0 |
| 20260906085747 | 18 | 113 | 0.0 | 1.6 | 0.00 | 0.00 | 0.00 | 94 | 1007.9 |
| 20260906085242 | 18 | 6 | 0.0 | 1.6 | 0.00 | 0.00 | 0.00 | 94 | 1007.9 |
| 20260906084735 | 18 | 6 | 0.0 | 1.6 | 0.00 | 0.00 | 0.00 | 94 | 1008.0 |
| 20260906083734 | 18 | 111 | 0.0 | 0.0 | 0.00 | 0.00 | 0.00 | 94 | 1008.1 |
| 20260906083231 | 18 | 111 | 0.0 | 0.0 | 0.00 | 0.00 | 0.00 | 94 | 1007.9 |
| 20260906082730 | 18 | 111 | 0.0 | 1.6 | 0.00 | 0.00 | 0.00 | 94 | 1007.8 |
| 20260906082228 | 18 | 111 | 0.0 | 1.6 | 0.00 | 0.00 | 0.00 | 94 | 1007.8 |
| 20260906081727 | 18 | 124 | 0.0 | 0.0 | 0.00 | 0.00 | 0.00 | 94 | 1007.8 |
| 20260906081228 | 18 | 126 | 0.0 | 1.6 | 0.00 | 0.00 | 0.00 | 94 | 1007.9 |
| 20260906080726 | 18 | 126 | 0.0 | 1.6 | 0.00 | 0.00 | 0.00 | 94 | 1007.9 |
| 20260906080227 | 18 | 51 | 0.0 | 1.6 | 0.00 | 0.00 | 0.00 | 94 | 1007.9 |
| 20260906075722 | 18 | 347 | 0.0 | 1.6 | 0.00 | 0.00 | 0.00 | 94 | 1008.0 |
| 20260906075220 | 18 | 82 | 0.0 | 1.6 | 0.00 | 0.00 | 0.00 | 94 | 1008.0 |
| 20260906074939 | 18 | 82 | 0.0 | 1.6 | 0.00 | 0.00 | 0.00 | 94 | 1007.9 |
| 20260906074218 | 18 | 63 | 0.0 | 1.6 | 0.00 | 0.00 | 0.00 | 94 | 1007.8 |
| 20260906073718 | 18 | 95 | 0.0 | 1.6 | 0.00 | 0.00 | 0.00 | 94 | 1008.0 |
| 20260906073439 | 18 | 20 | 0.0 | 1.6 | 0.00 | 0.00 | 0.00 | 94 | 1008.0 |
| 20260906072714 | 18 | 89 | 0.0 | 1.6 | 0.00 | 0.00 | 0.00 | 94 | 1008.0 |
| 20260906072438 | 18 | 340 | 0.0 | 1.6 | 0.00 | 0.00 | 0.00 | 94 | 1007.9 |
| 20260906071710 | 18 | 94 | 0.0 | 1.6 | 0.00 | 0.00 | 0.00 | 94 | 1007.9 |
| 20260906071207 | 18 | 48 | 0.0 | 0.0 | 0.00 | 0.00 | 0.00 | 93 | 1007.9 |
| 20260906070708 | 18 | 68 | 0.0 | 0.0 | 0.00 | 0.00 | 0.00 | 93 | 1007.9 |
| 20260906070208 | 18 | 68 | 0.0 | 0.0 | 0.00 | 0.00 | 0.00 | 93 | 1008.0 |
| 20260906065704 | 18 | 68 | 0.0 | 0.0 | 0.00 | 0.00 | 0.00 | 93 | 1007.9 |
| 20260906065203 | 18 | 68 | 0.0 | 0.0 | 0.00 | 0.00 | 0.00 | 93 | 1007.9 |
| 20260906064702 | 18 | 68 | 0.0 | 0.0 | 0.00 | 0.00 | 0.00 | 93 | 1008.0 |
| 20260906064427 | 18 | 68 | 0.0 | 0.0 | 0.00 | 0.00 | 0.00 | 93 | 1008.1 |
| 20260906063700 | 18 | 68 | 0.0 | 0.0 | 0.00 | 0.00 | 0.00 | 93 | 1008.1 |
| 20260906063200 | 18 | 68 | 0.0 | 1.6 | 0.00 | 0.00 | 0.00 | 93 | 1008.1 |
| 20260906062700 | 18 | 68 | 0.0 | 1.6 | 0.00 | 0.00 | 0.00 | 93 | 1008.1 |
| 20260906062415 | 18 | 68 | 0.0 | 0.0 | 0.00 | 0.00 | 0.00 | 93 | 1008.1 |
| 20260906061657 | 18 | 40 | 0.0 | 0.0 | 0.00 | 0.00 | 0.00 | 93 | 1008.1 |
| 20260906061158 | 18 | 84 | 0.0 | 0.0 | 0.00 | 0.00 | 0.00 | 93 | 1008.3 |
| 20260906060658 | 18 | 86 | 0.0 | 3.2 | 0.00 | 0.00 | 0.00 | 93 | 1008.1 |
| 20260906060158 | 18 | 86 | 0.0 | 3.2 | 0.00 | 0.00 | 0.00 | 93 | 1008.2 |
| 20260906055658 | 18 | 27 | 0.0 | 1.6 | 0.00 | 0.00 | 0.00 | 93 | 1008.2 |
| 20260906055156 | 18 | 352 | 0.0 | 1.6 | 0.00 | 0.00 | 0.00 | 93 | 1008.2 |
| 20260906054653 | 19 | 95 | 0.0 | 1.6 | 0.00 | 0.00 | 0.00 | 93 | 1008.1 |
| 20260906054152 | 18 | 83 | 0.0 | 0.0 | 0.00 | 0.00 | 0.00 | 93 | 1008.1 |
| 20260906053652 | 19 | 83 | 0.0 | 1.6 | 0.00 | 0.00 | 0.00 | 93 | 1008.0 |
| 20260906053152 | 19 | 27 | 0.0 | 1.6 | 0.00 | 0.00 | 0.00 | 93 | 1008.0 |
| 20260906052652 | 19 | 324 | 0.0 | 1.6 | 0.00 | 0.00 | 0.00 | 93 | 1008.0 |
| 20260906052152 | 19 | 322 | 0.0 | 1.6 | 0.00 | 0.00 | 0.00 | 93 | 1008.1 |
| 20260906051651 | 19 | 6 | 0.0 | 0.0 | 0.00 | 0.00 | 0.00 | 93 | 1008.2 |
| 20260906051151 | 19 | 69 | 0.0 | 0.0 | 0.00 | 0.00 | 0.00 | 93 | 1008.1 |
| 20260906050652 | 19 | 46 | 0.0 | 0.0 | 0.00 | 0.00 | 0.00 | 93 | 1008.0 |
| 20260906050152 | 19 | 118 | 0.0 | 0.0 | 0.00 | 0.00 | 0.00 | 92 | 1007.8 |
| 20260906045654 | 19 | 118 | 0.0 | 0.0 | 0.00 | 0.00 | 0.00 | 92 | 1007.8 |
| 20260906045416 | 19 | 118 | 0.0 | 0.0 | 0.00 | 0.00 | 0.00 | 92 | 1007.7 |
| 20260906044643 | 19 | 118 | 0.0 | 0.0 | 0.00 | 0.00 | 0.00 | 92 | 1007.7 |
| 20260906044136 | 19 | 118 | 0.0 | 0.0 | 0.00 | 0.00 | 0.00 | 92 | 1007.7 |
| 20260906043850 | 19 | 118 | 0.0 | 1.6 | 0.00 | 0.00 | 0.00 | 92 | 1007.6 |
| 20260906043124 | 19 | 118 | 0.0 | 1.6 | 0.00 | 0.00 | 0.00 | 92 | 1007.6 |
| 20260906042618 | 20 | 30 | 0.0 | 1.6 | 0.00 | 0.00 | 0.00 | 92 | 1007.5 |
| 20260906042113 | 20 | 59 | 0.0 | 1.6 | 0.00 | 0.00 | 0.00 | 92 | 1007.5 |
| 20260906041825 | 20 | 59 | 0.0 | 1.6 | 0.00 | 0.00 | 0.00 | 92 | 1007.5 |
| 20260906041101 | 20 | 71 | 0.0 | 1.6 | 0.00 | 0.00 | 0.00 | 92 | 1007.4 |
| 20260906040555 | 20 | 8 | 0.0 | 1.6 | 0.00 | 0.00 | 0.00 | 92 | 1007.4 |
| 20260906040049 | 20 | 72 | 0.0 | 4.8 | 0.00 | 0.00 | 0.00 | 92 | 1007.4 |
| 20260906035542 | 20 | 105 | 0.0 | 4.8 | 0.00 | 0.00 | 0.00 | 92 | 1007.3 |
| 20260906035036 | 20 | 81 | 0.0 | 4.8 | 0.00 | 0.00 | 0.00 | 92 | 1007.3 |
| 20260906034531 | 20 | 72 | 0.0 | 6.4 | 0.00 | 0.00 | 0.00 | 92 | 1007.2 |
| 20260906034024 | 20 | 339 | 0.0 | 6.4 | 0.00 | 0.00 | 0.00 | 91 | 1007.2 |
| 20260906033013 | 20 | 107 | 0.0 | 1.6 | 0.00 | 0.00 | 0.00 | 91 | 1007.1 |
| 20260906032507 | 20 | 340 | 0.0 | 8.0 | 0.00 | 0.00 | 0.00 | 91 | 1007.0 |
| 20260906032000 | 20 | 340 | 1.6 | 8.0 | 0.00 | 0.00 | 0.00 | 91 | 1007.0 |
| 20260906031455 | 20 | 82 | 0.0 | 6.4 | 0.00 | 0.00 | 0.00 | 91 | 1007.0 |
| 20260906030948 | 20 | 30 | 0.0 | 3.2 | 0.00 | 0.00 | 0.00 | 91 | 1007.1 |
| 20260906030440 | 20 | 99 | 0.0 | 3.2 | 0.00 | 0.00 | 0.00 | 90 | 1007.0 |
| 20260906025933 | 20 | 72 | 0.0 | 3.2 | 0.00 | 0.00 | 0.00 | 90 | 1007.0 |
| 20260906025427 | 20 | 62 | 0.0 | 3.2 | 0.00 | 0.00 | 0.00 | 90 | 1007.0 |
| 20260906024923 | 20 | 70 | 0.0 | 1.6 | 0.00 | 0.00 | 0.00 | 90 | 1007.0 |
| 20260906024640 | 20 | 107 | 0.0 | 6.4 | 0.00 | 0.00 | 0.00 | 90 | 1007.0 |
| 20260906023910 | 20 | 29 | 1.6 | 9.7 | 0.00 | 0.00 | 0.00 | 90 | 1007.0 |
| 20260906023405 | 20 | 83 | 1.6 | 9.7 | 0.00 | 0.00 | 0.00 | 90 | 1006.9 |
| 20260906022906 | 20 | 15 | 0.0 | 3.2 | 0.00 | 0.00 | 0.00 | 90 | 1007.0 |
| 20260906022406 | 21 | 96 | 0.0 | 1.6 | 0.00 | 0.00 | 0.00 | 89 | 1007.0 |
| 20260906022127 | 21 | 107 | 0.0 | 3.2 | 0.00 | 0.00 | 0.00 | 89 | 1007.0 |
| 20260906021406 | 21 | 103 | 0.0 | 4.8 | 0.00 | 0.00 | 0.00 | 89 | 1006.9 |
| 20260906020906 | 21 | 54 | 0.0 | 4.8 | 0.00 | 0.00 | 0.00 | 89 | 1007.0 |
| 20260906020407 | 21 | 71 | 0.0 | 3.2 | 0.00 | 0.00 | 0.00 | 89 | 1007.0 |
| 20260906015904 | 21 | 118 | 0.0 | 1.6 | 0.00 | 0.00 | 0.00 | 89 | 1007.1 |
| 20260906015404 | 21 | 110 | 0.0 | 3.2 | 0.00 | 0.00 | 0.00 | 88 | 1006.9 |
| 20260906014902 | 21 | 118 | 0.0 | 3.2 | 0.00 | 0.00 | 0.00 | 88 | 1006.8 |
| 20260906014400 | 21 | 68 | 0.0 | 1.6 | 0.00 | 0.00 | 0.00 | 88 | 1006.7 |
| 20260906013900 | 21 | 266 | 0.0 | 3.2 | 0.00 | 0.00 | 0.00 | 88 | 1006.7 |
| 20260906013400 | 21 | 34 | 0.0 | 3.2 | 0.00 | 0.00 | 0.00 | 88 | 1006.9 |
| 20260906013114 | 21 | 13 | 0.0 | 3.2 | 0.00 | 0.00 | 0.00 | 88 | 1006.9 |
| 20260906012359 | 21 | 103 | 0.0 | 3.2 | 0.00 | 0.00 | 0.00 | 88 | 1006.9 |
| 20260906011856 | 21 | 59 | 0.0 | 4.8 | 0.00 | 0.00 | 0.00 | 88 | 1006.8 |
| 20260906011617 | 21 | 101 | 0.0 | 4.8 | 0.00 | 0.00 | 0.00 | 88 | 1006.9 |
| 20260906010853 | 21 | 89 | 1.6 | 11.3 | 0.00 | 0.00 | 0.00 | 88 | 1006.9 |
| 20260906010353 | 21 | 74 | 3.2 | 11.3 | 0.00 | 0.00 | 0.00 | 88 | 1006.9 |
| 20260906005854 | 21 | 98 | 1.6 | 8.0 | 0.00 | 0.00 | 0.00 | 88 | 1006.9 |
| 20260906005352 | 21 | 0 | 1.6 | 8.0 | 0.00 | 0.00 | 0.00 | 88 | 1006.9 |
| 20260906004851 | 21 | 293 | 1.6 | 8.0 | 0.00 | 0.00 | 0.00 | 88 | 1007.0 |
| 20260906004351 | 21 | 48 | 1.6 | 9.7 | 0.00 | 0.00 | 0.00 | 88 | 1007.0 |
| 20260906003852 | 21 | 79 | 1.6 | 9.7 | 0.00 | 0.00 | 0.00 | 87 | 1006.9 |
| 20260906003352 | 21 | 77 | 1.6 | 9.7 | 0.00 | 0.00 | 0.00 | 87 | 1006.7 |
| 20260906002852 | 21 | 311 | 1.6 | 9.7 | 0.00 | 0.00 | 0.00 | 87 | 1006.7 |
| 20260906002352 | 21 | 22 | 1.6 | 12.9 | 0.00 | 0.00 | 0.00 | 87 | 1006.7 |
| 20260906001853 | 22 | 18 | 3.2 | 12.9 | 0.00 | 0.00 | 0.00 | 87 | 1006.7 |
| 20260906001352 | 22 | 38 | 3.2 | 9.7 | 0.00 | 0.00 | 0.00 | 87 | 1006.6 |
| 20260906000852 | 22 | 59 | 3.2 | 9.7 | 0.00 | 0.00 | 0.00 | 87 | 1006.6 |
| 20260906000352 | 22 | 41 | 3.2 | 9.7 | 0.00 | 0.00 | 0.00 | 86 | 1006.6 |
| 20260905235852 | 22 | 100 | 3.2 | 14.5 | 0.00 | 0.00 | 0.00 | 86 | 1006.6 |
| 20260905235352 | 22 | 79 | 3.2 | 14.5 | 0.00 | 0.00 | 0.00 | 86 | 1006.6 |
| 20260905234851 | 22 | 113 | 3.2 | 14.5 | 0.00 | 0.00 | 0.00 | 85 | 1006.4 |
| 20260905234352 | 22 | 111 | 4.8 | 19.3 | 0.00 | 0.00 | 0.00 | 85 | 1006.2 |
| 20260905234112 | 22 | 74 | 4.8 | 19.3 | 0.00 | 0.00 | 0.00 | 84 | 1006.1 |
| 20260905233352 | 22 | 46 | 4.8 | 17.7 | 0.00 | 0.00 | 0.00 | 84 | 1006.2 |
| 20260905232851 | 23 | 108 | 4.8 | 16.1 | 0.00 | 0.00 | 0.00 | 83 | 1006.1 |
| 20260905232352 | 23 | 94 | 4.8 | 16.1 | 0.00 | 0.00 | 0.00 | 84 | 1006.1 |
| 20260905231851 | 23 | 66 | 4.8 | 16.1 | 0.00 | 0.00 | 0.00 | 83 | 1006.1 |
| 20260905231351 | 23 | 153 | 4.8 | 14.5 | 0.00 | 0.00 | 0.00 | 83 | 1006.1 |
| 20260905230852 | 23 | 71 | 4.8 | 12.9 | 0.00 | 0.00 | 0.00 | 83 | 1006.3 |
| 20260905230351 | 24 | 91 | 4.8 | 12.9 | 0.00 | 0.00 | 0.00 | 82 | 1006.2 |
| 20260905225850 | 24 | 31 | 4.8 | 12.9 | 0.00 | 0.00 | 0.00 | 82 | 1006.0 |
| 20260905225349 | 25 | 18 | 3.2 | 9.7 | 0.00 | 0.00 | 0.00 | 82 | 1005.9 |
| 20260905224850 | 25 | 76 | 3.2 | 9.7 | 0.00 | 0.00 | 0.00 | 82 | 1005.7 |
| 20260905224350 | 24 | 89 | 3.2 | 9.7 | 0.00 | 0.00 | 0.00 | 82 | 1005.7 |
| 20260905223852 | 24 | 134 | 3.2 | 11.3 | 0.00 | 0.00 | 0.00 | 82 | 1005.7 |
| 20260905223350 | 25 | 32 | 3.2 | 11.3 | 0.00 | 0.00 | 0.00 | 82 | 1005.6 |
| 20260905223118 | 25 | 65 | 3.2 | 14.5 | 0.00 | 0.00 | 0.00 | 81 | 1005.6 |
| 20260905222350 | 25 | 129 | 4.8 | 17.7 | 0.00 | 0.00 | 0.00 | 81 | 1005.9 |
| 20260905222111 | 25 | 87 | 4.8 | 17.7 | 0.00 | 0.00 | 0.00 | 81 | 1005.9 |
| 20260905221350 | 25 | 82 | 4.8 | 12.9 | 0.00 | 0.00 | 0.00 | 81 | 1005.6 |
| 20260905220848 | 25 | 75 | 3.2 | 14.5 | 0.00 | 0.00 | 0.00 | 80 | 1005.5 |
| 20260905220348 | 26 | 148 | 3.2 | 14.5 | 0.00 | 0.00 | 0.00 | 81 | 1005.6 |
| 20260905215846 | 26 | 347 | 4.8 | 12.9 | 0.00 | 0.00 | 0.00 | 80 | 1005.6 |
| 20260905215345 | 26 | 97 | 4.8 | 22.5 | 0.00 | 0.00 | 0.00 | 79 | 1005.6 |
| 20260905214837 | 26 | 118 | 3.2 | 22.5 | 0.00 | 0.00 | 0.00 | 79 | 1005.5 |
| 20260905214331 | 26 | 90 | 4.8 | 16.1 | 0.00 | 0.00 | 0.00 | 79 | 1005.6 |
| 20260905213825 | 26 | 77 | 6.4 | 16.1 | 0.00 | 0.00 | 0.00 | 77 | 1005.3 |
| 20260905213318 | 27 | 115 | 3.2 | 14.5 | 0.00 | 0.00 | 0.00 | 77 | 1005.3 |
| 20260905213035 | 27 | 78 | 3.2 | 9.7 | 0.00 | 0.00 | 0.00 | 76 | 1005.2 |
| 20260905212309 | 27 | 314 | 1.6 | 9.7 | 0.00 | 0.00 | 0.00 | 76 | 1005.2 |
| 20260905212031 | 27 | 36 | 1.6 | 6.4 | 0.00 | 0.00 | 0.00 | 77 | 1005.2 |
| 20260905211531 | 27 | 101 | 1.6 | 6.4 | 0.00 | 0.00 | 0.00 | 77 | 1005.2 |
| 20260905210809 | 27 | 143 | 3.2 | 11.3 | 0.00 | 0.00 | 0.00 | 76 | 1005.2 |
| 20260905210308 | 27 | 79 | 3.2 | 11.3 | 0.00 | 0.00 | 0.00 | 75 | 1005.0 |
| 20260905205808 | 27 | 18 | 3.2 | 9.7 | 0.00 | 0.00 | 0.00 | 77 | 1004.9 |
| 20260905205306 | 27 | 304 | 3.2 | 9.7 | 0.00 | 0.00 | 0.00 | 75 | 1005.1 |
| 20260905204808 | 27 | 41 | 1.6 | 8.0 | 0.00 | 0.00 | 0.00 | 76 | 1005.1 |
| 20260905204306 | 27 | 109 | 1.6 | 8.0 | 0.00 | 0.00 | 0.00 | 76 | 1005.2 |
| 20260905203805 | 27 | 304 | 3.2 | 8.0 | 0.00 | 0.00 | 0.00 | 74 | 1005.1 |
| 20260905203304 | 27 | 356 | 3.2 | 8.0 | 0.00 | 0.00 | 0.00 | 75 | 1005.2 |
| 20260905202804 | 27 | 356 | 3.2 | 9.7 | 0.00 | 0.00 | 0.00 | 75 | 1005.2 |
| 20260905201804 | 27 | 321 | 3.2 | 12.9 | 0.00 | 0.00 | 0.00 | 76 | 1005.1 |
| 20260905201303 | 27 | 23 | 4.8 | 12.9 | 0.00 | 0.00 | 0.00 | 76 | 1005.1 |
| 20260905200803 | 27 | 315 | 3.2 | 11.3 | 0.00 | 0.00 | 0.00 | 76 | 1005.2 |
| 20260905200303 | 27 | 12 | 3.2 | 11.3 | 0.00 | 0.00 | 0.00 | 75 | 1005.2 |
| 20260905200030 | 27 | 302 | 3.2 | 9.7 | 0.00 | 0.00 | 0.00 | 76 | 1005.2 |
| 20260905195300 | 27 | 334 | 3.2 | 9.7 | 0.00 | 0.00 | 0.00 | 77 | 1005.4 |
| 20260905194754 | 27 | 352 | 1.6 | 8.0 | 0.00 | 0.00 | 0.00 | 76 | 1005.2 |
| 20260905194247 | 27 | 75 | 1.6 | 6.4 | 0.00 | 0.00 | 0.00 | 78 | 1005.5 |
| 20260905193741 | 26 | 91 | 1.6 | 6.4 | 0.00 | 0.00 | 0.00 | 79 | 1005.5 |
| 20260905193236 | 26 | 96 | 1.6 | 6.4 | 0.00 | 0.00 | 0.00 | 80 | 1005.4 |
| 20260905192729 | 26 | 72 | 1.6 | 6.4 | 0.00 | 0.00 | 0.00 | 81 | 1005.7 |
| 20260905192223 | 26 | 80 | 3.2 | 9.7 | 0.00 | 0.00 | 0.00 | 81 | 1005.9 |
| 20260905191717 | 26 | 226 | 3.2 | 9.7 | 0.00 | 0.00 | 0.00 | 80 | 1005.7 |
| 20260905191211 | 26 | 18 | 1.6 | 12.9 | 0.00 | 0.00 | 0.00 | 79 | 1005.9 |
| 20260905190706 | 26 | 311 | 3.2 | 12.9 | 0.00 | 0.00 | 0.00 | 80 | 1005.7 |
| 20260905190159 | 25 | 110 | 3.2 | 9.7 | 0.00 | 0.00 | 0.00 | 82 | 1005.6 |
| 20260905185914 | 25 | 58 | 3.2 | 8.0 | 0.00 | 0.00 | 0.00 | 82 | 1006.0 |
| 20260905185148 | 25 | 89 | 3.2 | 8.0 | 0.00 | 0.00 | 0.00 | 82 | 1006.1 |
| 20260905184642 | 25 | 101 | 3.2 | 8.0 | 0.00 | 0.00 | 0.00 | 82 | 1006.0 |
| 20260905184135 | 25 | 269 | 3.2 | 8.0 | 0.00 | 0.00 | 0.00 | 83 | 1006.0 |
| 20260905183629 | 25 | 355 | 3.2 | 9.7 | 0.00 | 0.00 | 0.00 | 83 | 1006.1 |
| 20260905183124 | 25 | 83 | 3.2 | 9.7 | 0.00 | 0.00 | 0.00 | 83 | 1006.1 |
| 20260905182617 | 25 | 15 | 1.6 | 6.4 | 0.00 | 0.00 | 0.00 | 84 | 1006.2 |
| 20260905182111 | 25 | 86 | 1.6 | 8.0 | 0.00 | 0.00 | 0.00 | 84 | 1006.1 |
| 20260905181605 | 25 | 300 | 1.6 | 8.0 | 0.00 | 0.00 | 0.00 | 83 | 1006.1 |
| 20260905180812 | 25 | 339 | 1.6 | 6.4 | 0.00 | 0.00 | 0.00 | 85 | 1006.1 |
| 20260905180047 | 24 | 352 | 1.6 | 8.0 | 0.00 | 0.00 | 0.00 | 85 | 1006.1 |
| 20260905175541 | 24 | 336 | 1.6 | 8.0 | 0.00 | 0.00 | 0.00 | 85 | 1006.1 |
| 20260905175036 | 24 | 30 | 3.2 | 11.3 | 0.00 | 0.00 | 0.00 | 86 | 1006.1 |
| 20260905174529 | 24 | 46 | 1.6 | 11.3 | 0.00 | 0.00 | 0.00 | 86 | 1006.1 |
| 20260905174023 | 24 | 96 | 1.6 | 11.3 | 0.00 | 0.00 | 0.00 | 86 | 1006.1 |
| 20260905173517 | 24 | 29 | 3.2 | 14.5 | 0.00 | 0.00 | 0.00 | 86 | 1006.1 |
| 20260905173013 | 24 | 56 | 1.6 | 14.5 | 0.00 | 0.00 | 0.00 | 86 | 1006.1 |
| 20260905172513 | 24 | 24 | 1.6 | 11.3 | 0.00 | 0.00 | 0.00 | 87 | 1006.1 |
| 20260905171511 | 23 | 139 | 1.6 | 8.0 | 0.00 | 0.00 | 0.00 | 87 | 1006.2 |
| 20260905171011 | 23 | 331 | 1.6 | 8.0 | 0.00 | 0.00 | 0.00 | 86 | 1006.2 |
| 20260905170509 | 24 | 67 | 1.6 | 8.0 | 0.00 | 0.00 | 0.00 | 87 | 1006.2 |
| 20260905170007 | 23 | 307 | 1.6 | 9.7 | 0.00 | 0.00 | 0.00 | 87 | 1006.2 |
| 20260905165729 | 23 | 72 | 1.6 | 9.7 | 0.00 | 0.00 | 0.00 | 87 | 1006.3 |
| 20260905165007 | 23 | 71 | 1.6 | 9.7 | 0.00 | 0.00 | 0.00 | 87 | 1006.3 |
| 20260905164506 | 23 | 39 | 3.2 | 9.7 | 0.00 | 0.00 | 0.00 | 87 | 1006.4 |
| 20260905164005 | 23 | 102 | 3.2 | 9.7 | 0.00 | 0.00 | 0.00 | 88 | 1006.4 |
| 20260905163506 | 23 | 311 | 3.2 | 12.9 | 0.00 | 0.00 | 0.00 | 88 | 1006.3 |
| 20260905163005 | 23 | 27 | 1.6 | 12.9 | 0.00 | 0.00 | 0.00 | 88 | 1006.3 |
| 20260905162505 | 23 | 35 | 1.6 | 4.8 | 0.00 | 0.00 | 0.00 | 88 | 1006.3 |
| 20260905162005 | 23 | 318 | 1.6 | 6.4 | 0.00 | 0.00 | 0.00 | 88 | 1006.1 |
| 20260905161505 | 23 | 26 | 1.6 | 6.4 | 0.00 | 0.00 | 0.00 | 88 | 1006.3 |
| 20260905161228 | 23 | 343 | 1.6 | 6.4 | 0.00 | 0.00 | 0.00 | 88 | 1006.3 |
| 20260905160502 | 23 | 9 | 1.6 | 6.4 | 0.00 | 0.00 | 0.00 | 87 | 1006.3 |
| 20260905160001 | 24 | 102 | 1.6 | 6.4 | 0.00 | 0.00 | 0.00 | 87 | 1006.3 |
| 20260905155719 | 24 | 23 | 3.2 | 6.4 | 0.00 | 0.00 | 0.00 | 88 | 1006.2 |
| 20260905154959 | 24 | 352 | 1.6 | 9.7 | 0.00 | 0.00 | 0.00 | 87 | 1006.1 |
| 20260905154500 | 24 | 11 | 1.6 | 9.7 | 0.00 | 0.00 | 0.00 | 87 | 1006.1 |
| 20260905153957 | 24 | 5 | 3.2 | 11.3 | 0.00 | 0.00 | 0.00 | 87 | 1006.0 |
| 20260905153456 | 24 | 117 | 3.2 | 11.3 | 0.00 | 0.00 | 0.00 | 87 | 1005.9 |
| 20260905152955 | 24 | 275 | 3.2 | 11.3 | 0.00 | 0.00 | 0.00 | 87 | 1005.9 |
| 20260905152454 | 24 | 64 | 1.6 | 8.0 | 0.00 | 0.00 | 0.00 | 87 | 1005.9 |
| 20260905151955 | 24 | 306 | 1.6 | 11.3 | 0.00 | 0.00 | 0.00 | 87 | 1005.7 |
| 20260905151454 | 24 | 13 | 1.6 | 11.3 | 0.00 | 0.00 | 0.00 | 87 | 1005.6 |
| 20260905150952 | 24 | 349 | 1.6 | 4.8 | 0.00 | 0.00 | 0.00 | 88 | 1005.5 |
| 20260905150452 | 24 | 307 | 1.6 | 4.8 | 0.00 | 0.00 | 0.00 | 88 | 1005.5 |
| 20260905145953 | 24 | 310 | 1.6 | 6.4 | 0.00 | 0.00 | 0.00 | 88 | 1005.5 |
| 20260905145449 | 23 | 78 | 1.6 | 8.0 | 0.00 | 0.00 | 0.00 | 89 | 1005.4 |
| 20260905145206 | 23 | 98 | 1.6 | 8.0 | 0.00 | 0.00 | 0.00 | 90 | 1005.2 |
| 20260905144449 | 23 | 271 | 1.6 | 8.0 | 0.00 | 0.00 | 0.00 | 90 | 1005.2 |
| 20260905144211 | 23 | 79 | 1.6 | 8.0 | 0.00 | 0.00 | 0.00 | 91 | 1005.2 |
| 20260905143449 | 23 | 57 | 1.6 | 6.4 | 0.00 | 0.00 | 0.00 | 91 | 1005.4 |
| 20260905143209 | 23 | 272 | 1.6 | 8.0 | 0.00 | 0.00 | 0.00 | 92 | 1005.3 |
| 20260905142449 | 22 | 356 | 1.6 | 8.0 | 0.00 | 0.00 | 0.00 | 92 | 1005.3 |
| 20260905141949 | 22 | 75 | 1.6 | 9.7 | 0.00 | 0.00 | 0.00 | 92 | 1005.3 |
| 20260905141448 | 22 | 99 | 1.6 | 9.7 | 0.00 | 0.00 | 0.00 | 93 | 1005.4 |
| 20260905140945 | 22 | 86 | 1.6 | 11.3 | 0.00 | 0.00 | 0.00 | 93 | 1005.5 |
| 20260905140444 | 22 | 84 | 1.6 | 11.3 | 0.00 | 0.00 | 0.00 | 93 | 1005.2 |
| 20260905135945 | 22 | 340 | 0.0 | 4.8 | 0.00 | 0.00 | 0.00 | 94 | 1005.2 |
| 20260905135444 | 22 | 356 | 1.6 | 8.0 | 0.00 | 0.00 | 0.00 | 94 | 1005.2 |
| 20260905134944 | 22 | 82 | 1.6 | 8.0 | 0.00 | 0.00 | 0.00 | 94 | 1005.1 |
| 20260905134445 | 22 | 117 | 1.6 | 8.0 | 0.00 | 0.00 | 0.00 | 94 | 1005.0 |
| 20260905134204 | 22 | 63 | 1.6 | 8.0 | 0.00 | 0.00 | 0.00 | 94 | 1005.2 |
| 20260905133445 | 22 | 65 | 1.6 | 8.0 | 0.00 | 0.00 | 0.00 | 94 | 1005.1 |
| 20260905132945 | 22 | 16 | 1.6 | 8.0 | 0.00 | 0.00 | 0.00 | 94 | 1005.1 |
| 20260905132701 | 22 | 29 | 1.6 | 6.4 | 0.00 | 0.00 | 0.00 | 94 | 1005.1 |
| 20260905131945 | 22 | 337 | 0.0 | 3.2 | 0.00 | 0.00 | 0.00 | 94 | 1005.1 |
| 20260905131444 | 22 | 212 | 0.0 | 3.2 | 0.00 | 0.00 | 0.00 | 94 | 1005.3 |
| 20260905130944 | 21 | 351 | 0.0 | 4.8 | 0.00 | 0.00 | 0.00 | 94 | 1005.5 |
| 20260905130442 | 21 | 11 | 0.0 | 4.8 | 0.00 | 0.00 | 0.00 | 94 | 1005.5 |
| 20260905125942 | 21 | 315 | 0.0 | 4.8 | 0.00 | 0.00 | 0.00 | 94 | 1005.2 |
| 20260905125443 | 21 | 274 | 0.0 | 1.6 | 0.00 | 0.00 | 0.00 | 94 | 1004.9 |
| 20260905124943 | 21 | 319 | 1.6 | 11.3 | 0.00 | 0.00 | 0.00 | 94 | 1004.8 |
| 20260905124442 | 21 | 36 | 1.6 | 11.3 | 0.00 | 0.00 | 0.00 | 94 | 1004.9 |
| 20260905123942 | 21 | 96 | 0.0 | 3.2 | 0.00 | 0.00 | 0.00 | 94 | 1004.8 |
| 20260905123441 | 21 | 293 | 1.6 | 4.8 | 0.00 | 0.00 | 0.00 | 94 | 1004.7 |
| 20260905122942 | 21 | 90 | 1.6 | 4.8 | 0.00 | 0.00 | 0.00 | 94 | 1004.5 |
| 20260905122442 | 21 | 51 | 1.6 | 6.4 | 0.00 | 0.00 | 0.00 | 94 | 1004.4 |
| 20260905121938 | 21 | 139 | 0.0 | 6.4 | 0.00 | 0.00 | 0.00 | 94 | 1004.3 |
| 20260905121436 | 21 | 356 | 0.0 | 3.2 | 0.00 | 0.00 | 0.00 | 94 | 1004.2 |
| 20260905120937 | 21 | 357 | 0.0 | 12.9 | 0.00 | 0.00 | 0.00 | 94 | 1004.1 |
| 20260905120435 | 21 | 345 | 1.6 | 12.9 | 0.00 | 0.00 | 0.00 | 94 | 1004.1 |